Time,TemperatureF,DewpointF,PressureIn,WindDirection,WindDirectionDegrees,WindSpeedMPH,WindSpeedGustMPH,Humidity,HourlyPrecipIn,Conditions,Clouds,dailyrainin,SoftwareType,DateUTC
2013-01-03 00:03:00,72.0,67.0,30.04,SSE,159,0.0,0.0,84,0.00,,,0.00,,2013-01-03 05:03:00,
2013-01-03 00:12:00,72.0,67.0,30.03,SSE,159,1.0,3.0,84,0.00,,,0.00,,2013-01-03 05:12:00,
2013-01-03 00:23:00,72.0,67.0,30.03,SSE,159,1.0,3.0,84,0.00,,,0.00,,2013-01-03 05:23:00,
2013-01-03 00:33:00,72.0,67.0,30.03,SSE,159,1.0,3.0,84,0.00,,,0.00,,2013-01-03 05:33:00,
2013-01-03 00:42:00,72.0,67.0,30.03,SSE,159,1.0,3.0,84,0.00,,,0.00,,2013-01-03 05:42:00,
2013-01-03 00:52:00,73.0,68.0,30.03,South,178,0.0,2.0,84,0.00,,,0.00,,2013-01-03 05:52:00,
2013-01-03 01:03:00,72.0,67.0,30.03,South,178,0.0,2.0,84,0.00,,,0.00,,2013-01-03 06:03:00,
2013-01-03 01:12:00,72.0,67.0,30.03,South,178,0.0,2.0,84,0.00,,,0.00,,2013-01-03 06:12:00,
2013-01-03 01:22:00,72.0,67.0,30.03,South,178,0.0,1.0,84,0.00,,,0.00,,2013-01-03 06:22:00,
2013-01-03 01:33:00,72.0,67.0,30.03,South,178,0.0,2.0,85,0.00,,,0.00,,2013-01-03 06:33:00,
2013-01-03 01:42:00,72.0,67.0,30.03,South,178,0.0,2.0,85,0.00,,,0.00,,2013-01-03 06:42:00,
2013-01-03 01:52:00,71.0,67.0,30.03,WSW,243,0.0,1.0,86,0.00,,,0.00,,2013-01-03 06:52:00,
2013-01-03 02:02:00,71.0,67.0,30.03,NW,321,1.0,4.0,86,0.00,,,0.00,,2013-01-03 07:02:00,
2013-01-03 02:12:00,71.0,67.0,30.03,NW,321,1.0,4.0,86,0.00,,,0.00,,2013-01-03 07:12:00,
2013-01-03 02:22:00,71.0,67.0,30.03,NW,321,1.0,4.0,87,0.00,,,0.00,,2013-01-03 07:22:00,
2013-01-03 02:33:00,70.0,66.0,30.03,NNW,332,1.0,4.0,87,0.00,,,0.00,,2013-01-03 07:33:00,
2013-01-03 02:42:00,70.0,66.0,30.03,NNW,332,1.0,4.0,87,0.00,,,0.00,,2013-01-03 07:42:00,
2013-01-03 02:52:00,70.0,66.0,30.02,NNW,333,0.0,2.0,87,0.00,,,0.00,,2013-01-03 07:52:00,
2013-01-03 03:02:00,69.0,65.0,30.02,NNW,333,0.0,0.0,87,0.00,,,0.00,,2013-01-03 08:02:00,
2013-01-03 03:12:00,69.0,65.0,30.02,NNW,333,0.0,0.0,87,0.00,,,0.00,,2013-01-03 08:12:00,
2013-01-03 03:22:00,69.0,65.0,30.02,NNW,333,0.0,0.0,88,0.00,,,0.00,,2013-01-03 08:22:00,
2013-01-03 03:33:00,69.0,65.0,30.02,NNW,333,0.0,0.0,88,0.00,,,0.00,,2013-01-03 08:33:00,
2013-01-03 03:43:00,69.0,65.0,30.02,NNW,333,0.0,0.0,88,0.00,,,0.00,,2013-01-03 08:43:00,
2013-01-03 03:53:00,69.0,65.0,30.03,NNW,333,0.0,0.0,88,0.00,,,0.00,,2013-01-03 08:53:00,
2013-01-03 04:03:00,68.0,64.0,30.02,NNW,333,0.0,0.0,88,0.00,,,0.00,,2013-01-03 09:03:00,
2013-01-03 04:12:00,68.0,64.0,30.02,NNW,333,0.0,0.0,88,0.00,,,0.00,,2013-01-03 09:12:00,
2013-01-03 04:22:00,68.0,65.0,30.02,NNW,333,0.0,2.0,89,0.00,,,0.00,,2013-01-03 09:22:00,
2013-01-03 04:33:00,68.0,65.0,30.03,NNW,333,1.0,4.0,89,0.00,,,0.00,,2013-01-03 09:33:00,
2013-01-03 04:43:00,68.0,65.0,30.03,NNW,333,1.0,4.0,89,0.00,,,0.00,,2013-01-03 09:43:00,
2013-01-03 04:52:00,68.0,65.0,30.02,NNW,336,2.0,5.0,90,0.00,,,0.00,,2013-01-03 09:52:00,
2013-01-03 05:02:00,68.0,65.0,30.02,NNW,336,1.0,3.0,90,0.00,,,0.00,,2013-01-03 10:02:00,
2013-01-03 05:12:00,68.0,65.0,30.02,NNW,336,1.0,3.0,90,0.00,,,0.00,,2013-01-03 10:12:00,
2013-01-03 05:23:00,68.0,65.0,30.02,NNW,336,0.0,1.0,90,0.00,,,0.00,,2013-01-03 10:23:00,
2013-01-03 05:33:00,68.0,65.0,30.03,NNW,336,0.0,2.0,90,0.00,,,0.00,,2013-01-03 10:33:00,
2013-01-03 05:43:00,68.0,65.0,30.03,NNW,336,0.0,2.0,90,0.00,,,0.00,,2013-01-03 10:43:00,
2013-01-03 05:52:00,68.0,65.0,30.03,NNW,336,0.0,1.0,90,0.00,,,0.00,,2013-01-03 10:52:00,
2013-01-03 06:02:00,68.0,65.0,30.03,NNW,336,0.0,1.0,90,0.00,,,0.00,,2013-01-03 11:02:00,
2013-01-03 06:12:00,68.0,65.0,30.03,NNW,336,0.0,1.0,90,0.00,,,0.00,,2013-01-03 11:12:00,
2013-01-03 06:23:00,68.0,65.0,30.03,NNW,336,0.0,3.0,90,0.00,,,0.00,,2013-01-03 11:23:00,
2013-01-03 06:33:00,68.0,65.0,30.04,NNW,336,0.0,0.0,90,0.00,,,0.00,,2013-01-03 11:33:00,
2013-01-03 06:43:00,68.0,65.0,30.04,NNW,336,0.0,0.0,90,0.00,,,0.00,,2013-01-03 11:43:00,
2013-01-03 06:53:00,68.0,65.0,30.05,NNW,336,0.0,0.0,90,0.00,,,0.00,,2013-01-03 11:53:00,
2013-01-03 07:03:00,68.0,65.0,30.05,NNW,336,0.0,0.0,90,0.00,,,0.00,,2013-01-03 12:03:00,
2013-01-03 07:12:00,68.0,65.0,30.05,NNW,336,0.0,0.0,90,0.00,,,0.00,,2013-01-03 12:12:00,
2013-01-03 07:22:00,68.0,65.0,30.06,NNW,336,0.0,1.0,90,0.00,,,0.00,,2013-01-03 12:22:00,
2013-01-03 07:33:00,68.0,65.0,30.06,NNW,336,0.0,0.0,90,0.00,,,0.00,,2013-01-03 12:33:00,
2013-01-03 07:42:00,68.0,65.0,30.06,NNW,336,0.0,0.0,90,0.00,,,0.00,,2013-01-03 12:42:00,
2013-01-03 07:53:00,68.0,65.0,30.06,NNW,336,0.0,0.0,90,0.00,,,0.00,,2013-01-03 12:53:00,
2013-01-03 08:02:00,68.0,65.0,30.07,NNW,336,0.0,0.0,91,0.00,,,0.00,,2013-01-03 13:02:00,
2013-01-03 08:13:00,68.0,65.0,30.07,NNW,336,0.0,0.0,91,0.00,,,0.00,,2013-01-03 13:13:00,
2013-01-03 08:22:00,68.0,65.0,30.07,NNW,336,0.0,0.0,91,0.00,,,0.00,,2013-01-03 13:22:00,
2013-01-03 08:33:00,69.0,66.0,30.08,NNW,336,0.0,0.0,91,0.00,,,0.00,,2013-01-03 13:33:00,
2013-01-03 08:42:00,69.0,66.0,30.08,NNW,336,0.0,0.0,91,0.00,,,0.00,,2013-01-03 13:42:00,
2013-01-03 08:52:00,69.0,66.0,30.08,NNW,336,0.0,2.0,90,0.00,,,0.00,,2013-01-03 13:52:00,
2013-01-03 09:03:00,69.0,66.0,30.08,NNW,336,0.0,2.0,90,0.00,,,0.00,,2013-01-03 14:03:00,
2013-01-03 09:12:00,69.0,66.0,30.08,NNW,336,0.0,2.0,90,0.00,,,0.00,,2013-01-03 14:12:00,
2013-01-03 09:23:00,71.0,68.0,30.09,NNW,336,0.0,1.0,89,0.00,,,0.00,,2013-01-03 14:23:00,
2013-01-03 09:33:00,72.0,68.0,30.09,NNW,336,0.0,1.0,87,0.00,,,0.00,,2013-01-03 14:33:00,
2013-01-03 09:43:00,72.0,68.0,30.09,NNW,336,0.0,1.0,87,0.00,,,0.00,,2013-01-03 14:43:00,
2013-01-03 09:53:00,73.0,68.0,30.09,NNW,336,0.0,0.0,84,0.00,,,0.00,,2013-01-03 14:53:00,
2013-01-03 10:03:00,74.0,68.0,30.09,NNW,336,0.0,2.0,82,0.00,,,0.00,,2013-01-03 15:03:00,
2013-01-03 10:12:00,75.0,68.0,30.09,East,80,0.0,4.0,80,0.00,,,0.00,,2013-01-03 15:12:00,
2013-01-03 10:23:00,75.0,68.0,30.09,East,80,0.0,4.0,80,0.00,,,0.00,,2013-01-03 15:23:00,
2013-01-03 10:34:00,75.0,68.0,30.09,ESE,113,0.0,4.0,79,0.00,,,0.00,,2013-01-03 15:34:00,
2013-01-03 10:43:00,75.0,68.0,30.09,ESE,113,0.0,4.0,79,0.00,,,0.00,,2013-01-03 15:43:00,
2013-01-03 10:53:00,75.0,68.0,30.09,South,171,0.0,7.0,78,0.00,,,0.00,,2013-01-03 15:53:00,
2013-01-03 11:03:00,76.0,69.0,30.09,SE,128,2.0,6.0,79,0.00,,,0.00,,2013-01-03 16:03:00,
2013-01-03 11:12:00,76.0,69.0,30.09,SE,128,2.0,6.0,79,0.00,,,0.00,,2013-01-03 16:12:00,
2013-01-03 11:23:00,76.0,69.0,30.09,South,182,3.0,6.0,78,0.00,,,0.00,,2013-01-03 16:23:00,
2013-01-03 11:33:00,76.0,68.0,30.09,SSE,163,3.0,9.0,77,0.00,,,0.00,,2013-01-03 16:33:00,
2013-01-03 11:43:00,76.0,68.0,30.09,SSE,163,3.0,9.0,77,0.00,,,0.00,,2013-01-03 16:43:00,
2013-01-03 11:53:00,76.0,68.0,30.08,SSE,151,6.0,10.0,76,0.00,,,0.00,,2013-01-03 16:53:00,
2013-01-03 12:03:00,77.0,69.0,30.07,South,180,4.0,11.0,76,0.00,,,0.00,,2013-01-03 17:03:00,
2013-01-03 12:13:00,77.0,69.0,30.07,South,180,4.0,11.0,76,0.00,,,0.00,,2013-01-03 17:13:00,
2013-01-03 12:23:00,76.0,68.0,30.07,SSE,154,5.0,10.0,76,0.00,,,0.00,,2013-01-03 17:23:00,
2013-01-03 12:33:00,77.0,68.0,30.06,SSE,151,5.0,11.0,75,0.00,,,0.00,,2013-01-03 17:33:00,
2013-01-03 12:43:00,77.0,68.0,30.06,SSE,151,5.0,11.0,75,0.00,,,0.00,,2013-01-03 17:43:00,
2013-01-03 12:53:00,77.0,68.0,30.05,SE,135,4.0,8.0,74,0.00,,,0.00,,2013-01-03 17:53:00,
2013-01-03 13:03:00,78.0,69.0,30.04,SE,134,3.0,9.0,74,0.00,,,0.00,,2013-01-03 18:03:00,
2013-01-03 13:13:00,78.0,69.0,30.04,SE,134,3.0,9.0,74,0.00,,,0.00,,2013-01-03 18:13:00,
2013-01-03 13:22:00,78.0,69.0,30.04,ESE,108,5.0,11.0,73,0.00,,,0.00,,2013-01-03 18:22:00,
2013-01-03 13:33:00,78.0,69.0,30.03,SSE,159,3.0,11.0,74,0.00,,,0.00,,2013-01-03 18:33:00,
2013-01-03 13:43:00,78.0,69.0,30.03,SSE,159,3.0,11.0,74,0.00,,,0.00,,2013-01-03 18:43:00,
2013-01-03 13:53:00,78.0,69.0,30.02,SE,135,3.0,10.0,74,0.00,,,0.00,,2013-01-03 18:53:00,
2013-01-03 14:03:00,78.0,69.0,30.02,ESE,111,5.0,9.0,74,0.00,,,0.00,,2013-01-03 19:03:00,
2013-01-03 14:12:00,78.0,69.0,30.02,ESE,111,5.0,9.0,74,0.00,,,0.00,,2013-01-03 19:12:00,
2013-01-03 14:56:00,78.0,68.0,30.01,South,175,4.0,11.0,71,0.00,,,0.00,,2013-01-03 19:56:00,
2013-01-03 15:03:00,78.0,67.0,30.02,South,185,5.0,12.0,70,0.00,,,0.00,,2013-01-03 20:03:00,
2013-01-03 15:13:00,78.0,67.0,30.02,South,185,5.0,12.0,70,0.00,,,0.00,,2013-01-03 20:13:00,
2013-01-03 15:22:00,78.0,67.0,30.01,SSE,148,4.0,12.0,70,0.00,,,0.00,,2013-01-03 20:22:00,
2013-01-03 15:33:00,78.0,67.0,30.01,ESE,122,3.0,12.0,70,0.00,,,0.00,,2013-01-03 20:33:00,
2013-01-03 15:43:00,78.0,67.0,30.01,ESE,122,3.0,12.0,70,0.00,,,0.00,,2013-01-03 20:43:00,
2013-01-03 15:53:00,78.0,68.0,30.02,South,171,6.0,11.0,71,0.00,,,0.00,,2013-01-03 20:53:00,
2013-01-03 16:03:00,78.0,68.0,30.02,SSW,192,4.0,12.0,72,0.00,,,0.00,,2013-01-03 21:03:00,
2013-01-03 16:13:00,78.0,68.0,30.02,SSW,192,4.0,12.0,72,0.00,,,0.00,,2013-01-03 21:13:00,
2013-01-03 16:23:00,78.0,68.0,30.03,SE,127,4.0,11.0,71,0.00,,,0.00,,2013-01-03 21:23:00,
2013-01-03 16:37:00,77.0,67.0,30.03,South,190,5.0,10.0,71,0.00,,,0.00,,2013-01-03 21:37:00,
2013-01-03 16:50:00,77.0,67.0,30.03,South,190,5.0,10.0,71,0.00,,,0.00,,2013-01-03 21:50:00,
2013-01-03 17:03:00,77.0,67.0,30.03,SE,134,4.0,10.0,71,0.00,,,0.00,,2013-01-03 22:03:00,
2013-01-03 17:12:00,77.0,67.0,30.03,SE,134,4.0,10.0,71,0.00,,,0.00,,2013-01-03 22:12:00,
2013-01-03 17:22:00,77.0,68.0,30.04,South,181,3.0,10.0,73,0.00,,,0.00,,2013-01-03 22:22:00,
2013-01-03 17:33:00,76.0,67.0,30.04,South,188,3.0,9.0,75,0.00,,,0.00,,2013-01-03 22:33:00,
2013-01-03 17:43:00,76.0,67.0,30.04,South,188,3.0,9.0,75,0.00,,,0.00,,2013-01-03 22:43:00,
2013-01-03 17:52:00,76.0,68.0,30.05,SSE,155,5.0,8.0,76,0.00,,,0.00,,2013-01-03 22:52:00,
2013-01-03 18:03:00,75.0,67.0,30.05,SSE,164,3.0,8.0,77,0.00,,,0.00,,2013-01-03 23:03:00,
2013-01-03 18:12:00,75.0,67.0,30.05,SSE,164,3.0,8.0,77,0.00,,,0.00,,2013-01-03 23:12:00,
2013-01-03 18:22:00,75.0,68.0,30.05,SSE,156,3.0,8.0,78,0.00,,,0.00,,2013-01-03 23:22:00,
2013-01-03 18:33:00,75.0,68.0,30.06,South,183,3.0,6.0,79,0.00,,,0.00,,2013-01-03 23:33:00,
2013-01-03 18:43:00,75.0,68.0,30.06,South,183,3.0,6.0,79,0.00,,,0.00,,2013-01-03 23:43:00,
2013-01-03 18:52:00,75.0,68.0,30.06,ESE,119,3.0,7.0,79,0.00,,,0.00,,2013-01-03 23:52:00,
2013-01-03 19:03:00,74.0,67.0,30.06,SSE,154,0.0,7.0,80,0.00,,,0.00,,2013-01-04 00:03:00,
2013-01-03 19:13:00,74.0,67.0,30.06,SSE,154,0.0,7.0,80,0.00,,,0.00,,2013-01-04 00:13:00,
2013-01-03 19:22:00,74.0,68.0,30.07,SSE,148,1.0,5.0,81,0.00,,,0.00,,2013-01-04 00:22:00,
2013-01-03 19:33:00,74.0,68.0,30.08,SSE,162,2.0,5.0,81,0.00,,,0.00,,2013-01-04 00:33:00,
2013-01-03 19:42:00,74.0,68.0,30.08,SSE,162,2.0,5.0,81,0.00,,,0.00,,2013-01-04 00:42:00,
2013-01-03 19:52:00,74.0,67.0,30.08,SSE,167,3.0,7.0,80,0.00,,,0.00,,2013-01-04 00:52:00,
2013-01-03 20:02:00,74.0,68.0,30.08,SSE,148,1.0,6.0,81,0.00,,,0.00,,2013-01-04 01:02:00,
2013-01-03 20:13:00,74.0,68.0,30.08,SSE,148,1.0,6.0,81,0.00,,,0.00,,2013-01-04 01:13:00,
2013-01-03 20:22:00,74.0,68.0,30.09,South,173,4.0,7.0,82,0.00,,,0.00,,2013-01-04 01:22:00,
2013-01-03 20:33:00,74.0,68.0,30.09,SE,144,4.0,9.0,82,0.00,,,0.00,,2013-01-04 01:33:00,
2013-01-03 20:42:00,74.0,68.0,30.09,SE,144,4.0,9.0,82,0.00,,,0.00,,2013-01-04 01:42:00,
2013-01-03 20:52:00,74.0,68.0,30.09,SSE,158,2.0,8.0,82,0.00,,,0.00,,2013-01-04 01:52:00,
2013-01-03 21:02:00,74.0,68.0,30.10,South,186,3.0,7.0,82,0.00,,,0.00,,2013-01-04 02:02:00,
2013-01-03 21:12:00,74.0,68.0,30.10,South,186,3.0,7.0,82,0.00,,,0.00,,2013-01-04 02:12:00,
2013-01-03 21:22:00,74.0,68.0,30.10,SSE,164,1.0,5.0,82,0.00,,,0.00,,2013-01-04 02:22:00,
2013-01-03 21:33:00,74.0,68.0,30.11,SSW,213,0.0,4.0,83,0.00,,,0.00,,2013-01-04 02:33:00,
2013-01-03 21:42:00,74.0,68.0,30.11,SSW,213,0.0,4.0,83,0.00,,,0.00,,2013-01-04 02:42:00,
2013-01-03 21:52:00,74.0,68.0,30.11,SSW,213,0.0,2.0,83,0.00,,,0.00,,2013-01-04 02:52:00,
2013-01-03 22:03:00,74.0,69.0,30.11,SSW,213,0.0,3.0,84,0.00,,,0.00,,2013-01-04 03:03:00,
2013-01-03 22:12:00,74.0,69.0,30.11,SSW,213,0.0,3.0,84,0.00,,,0.00,,2013-01-04 03:12:00,
2013-01-03 22:22:00,73.0,68.0,30.11,SSW,213,0.0,3.0,84,0.00,,,0.00,,2013-01-04 03:22:00,
2013-01-03 22:33:00,73.0,68.0,30.11,SSW,213,0.0,0.0,84,0.00,,,0.00,,2013-01-04 03:33:00,
2013-01-03 22:43:00,73.0,68.0,30.11,SSW,213,0.0,0.0,84,0.00,,,0.00,,2013-01-04 03:43:00,
2013-01-03 22:52:00,73.0,68.0,30.11,SSW,213,0.0,2.0,83,0.00,,,0.00,,2013-01-04 03:52:00,
2013-01-03 23:02:00,72.0,67.0,30.10,South,185,0.0,4.0,84,0.00,,,0.00,,2013-01-04 04:02:00,
2013-01-03 23:12:00,72.0,67.0,30.10,South,185,0.0,4.0,84,0.00,,,0.00,,2013-01-04 04:12:00,
2013-01-03 23:22:00,72.0,67.0,30.10,South,185,0.0,3.0,84,0.00,,,0.00,,2013-01-04 04:22:00,
2013-01-03 23:32:00,72.0,67.0,30.10,South,171,0.0,3.0,84,0.00,,,0.00,,2013-01-04 04:32:00,
2013-01-03 23:42:00,72.0,67.0,30.10,South,171,0.0,3.0,84,0.00,,,0.00,,2013-01-04 04:42:00,
2013-01-03 23:52:00,72.0,67.0,30.11,South,171,0.0,0.0,84,0.00,,,0.00,,2013-01-04 04:52:00,